Tracking 17884 objects as of 4-December-2016
HD Live streaming from Space Station
objects crossing your sky now

MAQSAT H

Track MAQSAT H now!
10-day predictions
MAQSAT H is classified as:


NORAD ID: 25023
Int'l Code: 1997-066A
Perigee: 730.0 km
Apogee: 27,142.8 km
Inclination: 7.7 °
Period: 480.0 minutes
Semi major axis: 20307 km
RCS: 21.0323 m2 (large)
Launch date: October 30, 1997
Source: European Space Agency (ESA)
Launch site: FRENCH GUIANA (FRGUI)
Your satellite tracking list
Your tracking list is empty





NASA's NSSDC Master Catalog

Two Line Element Set (TLE):
1 25023U 97066A   16337.90894633 -.00000016 +00000-0 +20788-3 0  9998
2 25023 007.7295 126.5213 6503264 279.4849 342.4727 03.09954354215787
Source of the keplerian elements: AFSPC